Location: Arboyeti
(42.1122°N, 44.6017°E)
Time: 03:49:19
(UTC+00:00)

Cosmos 1356 - Pass Details

Date: 19 April 2021
Orbit: 439 x 442 km, 81.1° (Epoch: 09 May)

Event Time Altitude Azimuth Distance (km) Brightness Sun altitude
Rises 17:15:10 0° 355° (N) 2,444 7.7 -15.7°
Reaches altitude 10° 17:17:17 10° 0° (N) 1,568 6.6 -16.0°
Maximum altitude 17:20:38 51° 78° (ENE) 562 3.5 -16.5°
Enters shadow 17:21:19 43° 120° (ESE) 637 3.6 -16.6°
